Weather History for PABI - June, 2013

Change the Weather History Date:

Tuesday, June 25, 2013

  Actual Average Record
Temperature  
Mean Temperature 74 °F -  
Max Temperature 90 °F 69 °F 90 °F (2013)
Min Temperature 59 °F 50 °F 44 °F (2006)
Cooling Degree Days 10    
Growing Degree Days 24 (Base 50)    
Moisture  
Dew Point 45 °F    
Average Humidity 33    
Maximum Humidity 58    
Minimum Humidity 13    
Precipitation  
Precipitation 0.00 in - - ()
Sea Level Pressure  
Sea Level Pressure 29.58 in    
Wind  
Wind Speed 6 mph (ESE)    
Max Wind Speed 18 mph    
Max Gust Speed 25 mph    
Visibility 10 miles    
Events      
Averages and records for this station are not official NWS values.
T = Trace of Precipitation, MM = Missing Value Source: NWS Daily Summary

Daily Weather History Graph

Daily Weather History Graph

Search for Another Location

Airport or City:

Trip Planner

Search our weather history database for the weather conditions in past years. The results will help you decide how hot, cold, wet, or windy it might be!

Date:

Astronomy

Jun. 25, 2013 Rise Set
Actual Time 3:16 AM AKDT 12:13 AM AKDT
Civil Twilight Sun does not set Sun does not set
Nautical Twilight Sun does not set Sun does not set
Astronomical Twilight Sun does not set Sun does not set
Moon No Moon Rise 7:46 AM AKDT (6/25)
Length of Visible Light 24h 00m
Length of Day
20h 57m
Waning Gibbous, 92% of the Moon is Illuminated
Jun 25
Waning Gibbous
Jun 29
Last Quarter
Jul 7
New
Jul 15
First Quarter
Jul 22
Full

Hourly Weather History & Observations

Time (AKDT) Temp. Dew Point Humidity Pressure Visibility Wind Dir Wind Speed Gust Speed Precip Events Conditions
12:53 AM 68.0 °F 46.0 °F 45% 29.63 in 10.0 mi SW 9.2 mph - N/A   Clear
1:53 AM 64.0 °F 45.0 °F 50% 29.64 in 10.0 mi SW 5.8 mph - N/A   Clear
2:53 AM 62.1 °F 44.1 °F 52% 29.65 in 10.0 mi SW 5.8 mph - N/A   Clear
3:53 AM 61.0 °F 43.0 °F 52% 29.66 in 10.0 mi Calm Calm - N/A   Clear
4:53 AM 59.0 °F 44.1 °F 58% 29.67 in 10.0 mi SSW 3.5 mph - N/A   Clear
5:53 AM 61.0 °F 45.0 °F 56% 29.68 in 10.0 mi SSW 3.5 mph - N/A   Partly Cloudy
6:53 AM 64.0 °F 44.1 °F 48% 29.67 in 10.0 mi SW 5.8 mph - N/A   Partly Cloudy
7:53 AM 66.0 °F 46.0 °F 48% 29.68 in 10.0 mi Calm Calm - N/A   Partly Cloudy
8:53 AM 71.1 °F 46.0 °F 41% 29.67 in 10.0 mi East 3.5 mph - N/A   Partly Cloudy
9:53 AM 75.0 °F 46.9 °F 37% 29.66 in 10.0 mi East 8.1 mph - N/A   Partly Cloudy
10:53 AM 78.1 °F 45.0 °F 31% 29.65 in 10.0 mi East 8.1 mph - N/A   Scattered Clouds
11:53 AM 80.1 °F 45.0 °F 29% 29.65 in 10.0 mi ESE 5.8 mph - N/A   Scattered Clouds
12:53 PM 82.9 °F 43.0 °F 24% 29.64 in 10.0 mi ESE 10.4 mph - N/A   Mostly Cloudy
1:53 PM 84.9 °F 44.1 °F 24% 29.63 in 10.0 mi ESE 10.4 mph 18.4 mph N/A   Mostly Cloudy
2:53 PM 86.0 °F 44.1 °F 23% 29.62 in 10.0 mi ESE 10.4 mph 19.6 mph N/A   Mostly Cloudy
3:53 PM 87.1 °F 43.0 °F 21% 29.61 in 10.0 mi Variable 5.8 mph - N/A   Scattered Clouds
4:53 PM 88.0 °F 42.1 °F 20% 29.60 in 10.0 mi Variable 3.5 mph - N/A   Scattered Clouds
5:53 PM 88.0 °F 43.0 °F 21% 29.59 in 10.0 mi ESE 4.6 mph - N/A   Scattered Clouds
6:53 PM 89.1 °F 43.0 °F 20% 29.58 in 10.0 mi NE 5.8 mph - N/A   Scattered Clouds
7:53 PM 89.1 °F 43.0 °F 20% 29.57 in 10.0 mi NNE 5.8 mph - N/A   Scattered Clouds
8:53 PM 88.0 °F 45.0 °F 22% 29.57 in 10.0 mi NE 4.6 mph - N/A   Scattered Clouds
9:53 PM 84.9 °F 48.0 °F 28% 29.58 in 10.0 mi NE 3.5 mph - N/A   Mostly Cloudy
10:53 PM 82.9 °F 46.0 °F 27% 28.30 in 10.0 mi East 18.4 mph 25.3 mph N/A   Scattered Clouds
11:53 PM 80.1 °F 45.0 °F 29% 29.61 in 10.0 mi East 16.1 mph - N/A   Mostly Cloudy